Flag for Ukraine

Past Weather in Kyiv, Ukraine — Yesterday and Last 2 Weeks

Now
61 °F

Passing clouds.


Feels Like: 61 °F
Forecast: 60 / 53 °F
Wind: 10 mph from Southeast

Location: Kyiv
Current Time: Oct 1, 2020 at 8:15:25 pm
Latest Report: Oct 1, 2020 at 7:30 pm
Visibility: N/A
Pressure29.89 "Hg
Humidity: 72%
Dew Point: 52 °F
Location of KyivLocation

Past Weather in Kyiv — Graph

°F

Kyiv Temperature Yesterday

Maximum temperature yesterday: 59 °F (at 12:00 am)
Minimum temperature yesterday: 54 °F (at 6:00 am)
Average temperature yesterday: 55 °F

High & Low Weather Summary for the Past Weeks

 TemperatureHumidityPressure
High86 °F (Sep 17, 2:30 pm)100% (Sep 20, 11:00 pm)30.24 "Hg (Sep 20, 11:00 pm)
Low41 °F (Sep 19, 6:30 am)21% (Sep 23, 2:30 pm)29.62 "Hg (Oct 1, 3:30 am)
Average60 °F66%29.98 "Hg
* Reported Sep 16 6:00 pm — Oct 1 6:30 pm, Kyiv. Weather by CustomWeather, © 2020

Note: Actual official high and low records may vary slightly from our data, if they occured in-between our weather recording intervals... More about our weather records

Kyiv Weather History for the Previous 24 Hours

Scroll right to see more
 ConditionsComfort  
Time TempWeatherWind HumidityBarometerVisibility
6:30 pm
Thu, Oct 1
61 °FPartly sunny.15 mph72%29.86 "Hg6 mi
6:00 pm61 °FScattered clouds.10 mph72%29.86 "Hg6 mi
5:30 pm63 °FPartly sunny.13 mph68%29.86 "Hg4 mi
5:00 pm63 °FPartly sunny.10 mph68%29.86 "Hg4 mi
4:30 pm63 °FPartly sunny.8 mph73%29.86 "Hg4 mi
4:00 pm63 °FPartly sunny.6 mph73%29.86 "Hg4 mi
3:30 pm63 °FPartly sunny.8 mph73%29.86 "Hg5 mi
3:00 pm63 °FPartly sunny.10 mph73%29.86 "HgN/A
2:30 pm63 °FPartly sunny.8 mph77%29.86 "HgN/A
2:00 pm61 °FPartly sunny.10 mph83%29.86 "HgN/A
1:30 pm61 °FBroken clouds.10 mph83%29.86 "HgN/A
1:00 pm59 °FBroken clouds.10 mph88%29.86 "HgN/A
12:30 pm59 °FPartly sunny.10 mph88%29.86 "HgN/A
12:00 pm59 °FPartly sunny.8 mph82%29.83 "HgN/A
11:30 am59 °FBroken clouds.10 mph88%29.83 "HgN/A
11:00 am59 °FPartly sunny.8 mph88%29.83 "HgN/A
10:30 am57 °FBroken clouds.10 mph94%29.83 "HgN/A
10:00 am57 °FBroken clouds.10 mph94%29.80 "HgN/A
9:30 am57 °FBroken clouds.13 mph94%29.80 "HgN/A
9:00 am57 °FPartly sunny.10 mph88%29.80 "HgN/A
8:30 am57 °FPartly sunny.10 mph88%29.77 "HgN/A
8:00 am55 °FBroken clouds.10 mph94%29.77 "HgN/A
7:30 am57 °FBroken clouds.15 mph88%29.74 "HgN/A
7:00 am55 °FBroken clouds.13 mph94%29.74 "HgN/A
6:30 am55 °FPassing clouds.13 mph94%29.71 "HgN/A
6:00 am57 °FLight rain. Mostly cloudy.13 mph88%29.68 "HgN/A
5:30 am55 °FLight rain. Fog.13 mph94%29.65 "Hg3 mi
5:12 am55 °FLight rain. Fog.17 mph94%29.65 "Hg3 mi
4:30 am57 °FMostly cloudy.20 mph88%29.62 "Hg4 mi
4:04 am57 °FMostly cloudy.20 mph88%29.62 "Hg4 mi
3:50 am57 °FMostly cloudy.22 mph88%29.62 "Hg4 mi
3:30 am57 °FFog.22 mph88%29.62 "Hg3 mi
3:00 am57 °FFog.17 mph88%29.65 "Hg3 mi
2:30 am55 °FMostly cloudy.15 mph94%29.65 "Hg4 mi
2:00 am55 °FMostly cloudy.17 mph94%29.65 "Hg4 mi
1:30 am55 °FLow clouds.15 mph94%29.68 "Hg6 mi
1:00 am55 °FLow clouds.13 mph94%29.68 "HgN/A
12:30 am54 °FLow clouds.10 mph100%29.68 "HgN/A
12:00 am54 °FLight rain. Low clouds.13 mph100%29.71 "Hg6 mi
11:30 pm
Wed, Sep 30
54 °FLight rain. Low clouds.13 mph100%29.71 "Hg5 mi
11:00 pm54 °FLow clouds.13 mph100%29.71 "HgN/A
10:30 pm54 °FLight rain. Mostly cloudy.13 mph100%29.71 "HgN/A
9:30 pm54 °FLight rain. Fog.13 mph100%29.74 "Hg3 mi
9:00 pm54 °FLight rain. Mostly cloudy.15 mph100%29.74 "Hg6 mi
8:30 pm54 °FLight rain. Mostly cloudy.15 mph100%29.74 "Hg4 mi
8:00 pm54 °FLight rain. Mostly cloudy.13 mph100%29.74 "Hg4 mi
Weather by CustomWeather, © 2020

See weather overview